Regional Weather Roundup
Issued by NWS Little Rock, AR

Home | Current Version | Previous Version | Text Only | Print | Product List | Glossary Off
Versions: 1 2 3 4 5 6 7 8 9 10 11 12 13 14 15 16 17 18 19 20 21 22 23 24 25 26 27 28 29 30 31 32 33 34 35 36 37 38 39 40 41 42 43 44 45 46 47 48 49 50

893
ASUS44 KLZK 200905
RWRLZK

WEATHER ROUNDUP FOR ARKANSAS
NATIONAL WEATHER SERVICE LITTLE ROCK AR
400 AM CDT WED SEP 20 2017

NOTE: "FAIR" INDICATES FEW OR NO CLOUDS BELOW 12,000 FEET WITH NO
SIGNIFICANT WEATHER AND/OR OBSTRUCTIONS TO VISIBILITY.

ARZ001-003-010-029-201000-
NORTHWEST ARKANSAS

CITY           SKY/WX    TMP DP  RH WIND       PRES   REMARKS
FAYETTEVILLE   CLEAR     73  72  96 CALM      29.86F
FORT SMITH     CLEAR     75  72  90 NE5       29.84S
HARRISON       CLEAR     74  71  91 S8        29.88F
BENTONVILLE    CLEAR     74  70  87 S9        29.87S
ROGERS         CLEAR     72  69  90 SE6       29.87S
SILOAM SPGS    CLEAR     74  70  87 S9        29.85F
HIGHFILL       CLEAR     73  71  93 S10       29.85F
$$

ARZ004-005-016-201000-
NORTH CENTRAL ARKANSAS

CITY           SKY/WX    TMP DP  RH WIND       PRES   REMARKS
BATESVILLE     PTCLDY   N/A N/A N/A CALM      29.90S
FLIPPIN        CLEAR     71  69  93 CALM      29.88S
MTN HOME       CLEAR     70  70 100 CALM      29.88S
$$

ARZ040-041-201000-
WEST CENTRAL ARKANSAS

CITY           SKY/WX    TMP DP  RH WIND       PRES   REMARKS
MENA           MOCLDY    79  79 100 CALM      29.89F
MOUNT IDA      CLOUDY    79  72  79 CALM      29.88S
$$

ARZ009-017-025-026-028-201000-
NORTHEAST ARKANSAS

CITY           SKY/WX    TMP DP  RH WIND       PRES   REMARKS
JONESBORO      CLEAR     71  71 100 CALM      29.90S
NEWPORT        CLEAR     70  69  97 S7        29.90S FOG
BLYTHEVILLE    CLEAR     74  72  93 S6        29.91F
$$

ARZ022-023-033-042-044-201000-
CENTRAL ARKANSAS

CITY           SKY/WX    TMP DP  RH WIND       PRES   REMARKS
LITTLE ROCK    CLOUDY    73  73 100 CALM      29.90S
N LITTLE ROCK    N/A     76  72  88 S5        29.90S
JACKSONVILLE   PTCLDY    75  74  99 S5        29.89F
CONWAY           N/A     75  72  88 CALM      29.88R
SEARCY         FOG       71  71 100 S3        29.91S VSB 1/2
HOT SPRINGS    CLOUDY    77  74  90 SE3       29.90S
RUSSELLVILLE   CLEAR     74  72  93 S5        29.87F
CLINTON        FAIR      68  68 100 CALM      29.90R FOG
$$

ARZ036-201000-
EAST ARKANSAS

CITY           SKY/WX    TMP DP  RH WIND       PRES   REMARKS
WEST MEMPHIS   CLEAR     73  73 100 S3        29.91S
$$

ARZ050-053-066-070-073-201000-
SOUTHWEST ARKANSAS

CITY           SKY/WX    TMP DP  RH WIND       PRES   REMARKS
ARKADELPHIA    FAIR      70  69  97 CALM      29.90R
CAMDEN         CLOUDY    73  72  94 S5        29.90R FOG
TEXARKANA      CLOUDY    76  74  93 S6        29.89R
EL DORADO      CLOUDY    75  73  93 S5        29.91S
DE QUEEN       PTCLDY    76  75  97 CALM      29.85S
$$

ARZ056-057-069-201000-
SOUTHEAST ARKANSAS

CITY           SKY/WX    TMP DP  RH WIND       PRES   REMARKS
PINE BLUFF     MOCLDY    72  70  93 CALM      29.91S
STUTTGART      PTCLDY    76  72  87 S8        29.91S
MONTICELLO     CLEAR     75  71  87 S5        29.92S

$$






USA.gov is the U.S. government's official web portal to all federal, state and local government web resources and services.